Date_Time,Julian_Date,Latitude,Longitude,Instrument_Depth,U,V,Speed,Direction
(yyyy-mm-dd hh:mn:ss UTC),(JD),(+ deg. North),(+ deg. East),(m),(cm/s),(cm/s),(cm/s),(deg True)
1981-06-02 19:00:00 UTC,2444758.291667,29.6417,-93.6667,0037,-4.12,-10.20,11.0000,202.0000
1981-06-02 19:30:00 UTC,2444758.312500,29.6417,-93.6667,0037,-7.62,-11.74,14.0000,213.0000
1981-06-02 20:00:00 UTC,2444758.333333,29.6417,-93.6667,0037,-9.63,-12.78,16.0000,217.0000
1981-06-02 20:30:00 UTC,2444758.354167,29.6417,-93.6667,0037,-9.63,-12.78,16.0000,217.0000
1981-06-02 21:00:00 UTC,2444758.375000,29.6417,-93.6667,0037,-7.83,-11.61,14.0000,214.0000
1981-06-02 21:30:00 UTC,2444758.395833,29.6417,-93.6667,0037,-5.33,-9.62,11.0000,209.0000
1981-06-02 22:00:00 UTC,2444758.416667,29.6417,-93.6667,0037,-2.78,-8.56,9.0000,198.0000
1981-06-02 22:30:00 UTC,2444758.437500,29.6417,-93.6667,0037,0.00,-8.00,8.0000,180.0000
1981-06-02 23:00:00 UTC,2444758.458333,29.6417,-93.6667,0037,2.21,-7.69,8.0000,164.0000
1981-06-02 23:30:00 UTC,2444758.479167,29.6417,-93.6667,0037,2.76,-9.61,10.0000,164.0000
1981-06-03 00:00:00 UTC,2444758.500000,29.6417,-93.6667,0037,2.42,-9.70,10.0000,166.0000
1981-06-03 00:30:00 UTC,2444758.520833,29.6417,-93.6667,0037,2.92,-9.56,10.0000,163.0000
1981-06-03 01:00:00 UTC,2444758.541667,29.6417,-93.6667,0037,3.08,-8.46,9.0000,160.0000
1981-06-03 01:30:00 UTC,2444758.562500,29.6417,-93.6667,0037,3.08,-8.46,9.0000,160.0000
1981-06-03 02:00:00 UTC,2444758.583333,29.6417,-93.6667,0037,2.07,-7.73,8.0000,165.0000
1981-06-03 02:30:00 UTC,2444758.604167,29.6417,-93.6667,0037,0.61,-4.96,5.0000,173.0000
1981-06-03 03:00:00 UTC,2444758.625000,29.6417,-93.6667,0037,0.10,-2.00,2.0000,177.0000
1981-06-03 03:30:00 UTC,2444758.645833,29.6417,-93.6667,0037,0.00,-0.00,0.0000,180.0000
1981-06-03 04:00:00 UTC,2444758.666667,29.6417,-93.6667,0037,0.26,-0.97,1.0000,165.0000
1981-06-03 04:30:00 UTC,2444758.687500,29.6417,-93.6667,0037,1.00,0.02,1.0000,89.0000
1981-06-03 05:00:00 UTC,2444758.708333,29.6417,-93.6667,0037,3.24,2.35,4.0000,54.0000
1981-06-03 05:30:00 UTC,2444758.729167,29.6417,-93.6667,0037,3.60,3.47,5.0000,46.0000
1981-06-03 06:00:00 UTC,2444758.750000,29.6417,-93.6667,0037,1.93,2.30,3.0000,40.0000
1981-06-03 06:30:00 UTC,2444758.770833,29.6417,-93.6667,0037,1.27,2.72,3.0000,25.0000
1981-06-03 07:00:00 UTC,2444758.791667,29.6417,-93.6667,0037,0.47,2.96,3.0000,9.0000
1981-06-03 07:30:00 UTC,2444758.812500,29.6417,-93.6667,0037,-1.36,2.67,3.0000,333.0000
1981-06-03 08:00:00 UTC,2444758.833333,29.6417,-93.6667,0037,-2.74,1.22,3.0000,294.0000
1981-06-03 08:30:00 UTC,2444758.854167,29.6417,-93.6667,0037,-2.96,-0.47,3.0000,261.0000
1981-06-03 09:00:00 UTC,2444758.875000,29.6417,-93.6667,0037,-3.56,-1.82,4.0000,243.0000
1981-06-03 09:30:00 UTC,2444758.895833,29.6417,-93.6667,0037,-8.75,-4.85,10.0000,241.0000
1981-06-03 10:00:00 UTC,2444758.916667,29.6417,-93.6667,0037,-10.88,-5.07,12.0000,245.0000
1981-06-03 10:30:00 UTC,2444758.937500,29.6417,-93.6667,0037,-5.87,-1.25,6.0000,258.0000
1981-06-03 11:00:00 UTC,2444758.958333,29.6417,-93.6667,0037,-0.54,-0.84,1.0000,213.0000
1981-06-03 11:30:00 UTC,2444758.979167,29.6417,-93.6667,0037,-1.46,-4.78,5.0000,197.0000
1981-06-03 12:00:00 UTC,2444759.000000,29.6417,-93.6667,0037,-3.91,-5.80,7.0000,214.0000
1981-06-03 12:30:00 UTC,2444759.020833,29.6417,-93.6667,0037,-2.73,-2.93,4.0000,223.0000
1981-06-03 13:00:00 UTC,2444759.041667,29.6417,-93.6667,0037,-1.60,-1.20,2.0000,233.0000
1981-06-03 13:30:00 UTC,2444759.062500,29.6417,-93.6667,0037,-2.74,-1.22,3.0000,246.0000
1981-06-03 14:00:00 UTC,2444759.083333,29.6417,-93.6667,0037,-2.78,-1.12,3.0000,248.0000
1981-06-03 14:30:00 UTC,2444759.104167,29.6417,-93.6667,0037,-0.93,-0.36,1.0000,249.0000
1981-06-03 15:00:00 UTC,2444759.125000,29.6417,-93.6667,0037,-0.00,-0.00,0.0000,246.0000
1981-06-03 15:30:00 UTC,2444759.145833,29.6417,-93.6667,0037,-0.00,-0.00,0.0000,248.0000
1981-06-03 16:00:00 UTC,2444759.166667,29.6417,-93.6667,0037,-0.00,-0.00,0.0000,249.0000
1981-06-03 16:30:00 UTC,2444759.187500,29.6417,-93.6667,0037,-0.00,-0.00,0.0000,253.0000
1981-06-03 17:00:00 UTC,2444759.208333,29.6417,-93.6667,0037,-0.96,-0.29,1.0000,253.0000
1981-06-03 17:30:00 UTC,2444759.229167,29.6417,-93.6667,0037,-1.88,-0.68,2.0000,250.0000
1981-06-03 18:00:00 UTC,2444759.250000,29.6417,-93.6667,0037,-2.36,-1.85,3.0000,232.0000
1981-06-03 18:30:00 UTC,2444759.270833,29.6417,-93.6667,0037,-4.24,-4.24,6.0000,225.0000
1981-06-03 19:00:00 UTC,2444759.291667,29.6417,-93.6667,0037,-6.99,-5.66,9.0000,231.0000
1981-06-03 19:30:00 UTC,2444759.312500,29.6417,-93.6667,0037,-10.18,-6.36,12.0000,238.0000
1981-06-03 20:00:00 UTC,2444759.333333,29.6417,-93.6667,0037,-11.87,-7.42,14.0000,238.0000
1981-06-03 20:30:00 UTC,2444759.354167,29.6417,-93.6667,0037,-12.94,-9.40,16.0000,234.0000
1981-06-03 21:00:00 UTC,2444759.375000,29.6417,-93.6667,0037,-12.61,-9.85,16.0000,232.0000
1981-06-03 21:30:00 UTC,2444759.395833,29.6417,-93.6667,0037,-13.21,-10.70,17.0000,231.0000
1981-06-03 22:00:00 UTC,2444759.416667,29.6417,-93.6667,0037,-12.43,-11.59,17.0000,227.0000
1981-06-03 22:30:00 UTC,2444759.437500,29.6417,-93.6667,0037,-11.81,-13.58,18.0000,221.0000
1981-06-03 23:00:00 UTC,2444759.458333,29.6417,-93.6667,0037,-9.80,-15.10,18.0000,213.0000
1981-06-03 23:30:00 UTC,2444759.479167,29.6417,-93.6667,0037,-8.45,-15.89,18.0000,208.0000
1981-06-04 00:00:00 UTC,2444759.500000,29.6417,-93.6667,0037,-7.26,-14.26,16.0000,207.0000
1981-06-04 00:30:00 UTC,2444759.520833,29.6417,-93.6667,0037,-5.47,-12.89,14.0000,203.0000
1981-06-04 01:00:00 UTC,2444759.541667,29.6417,-93.6667,0037,-5.24,-12.98,14.0000,202.0000
1981-06-04 01:30:00 UTC,2444759.562500,29.6417,-93.6667,0037,-5.45,-10.69,12.0000,207.0000
1981-06-04 02:00:00 UTC,2444759.583333,29.6417,-93.6667,0037,-6.77,-8.67,11.0000,218.0000
1981-06-04 02:30:00 UTC,2444759.604167,29.6417,-93.6667,0037,-7.99,-6.02,10.0000,233.0000
1981-06-04 03:00:00 UTC,2444759.625000,29.6417,-93.6667,0037,-7.95,-4.23,9.0000,242.0000
1981-06-04 03:30:00 UTC,2444759.645833,29.6417,-93.6667,0037,-7.31,-3.25,8.0000,246.0000
1981-06-04 04:00:00 UTC,2444759.666667,29.6417,-93.6667,0037,-8.34,-3.37,9.0000,248.0000
1981-06-04 04:30:00 UTC,2444759.687500,29.6417,-93.6667,0037,-8.51,-2.93,9.0000,251.0000
1981-06-04 05:00:00 UTC,2444759.708333,29.6417,-93.6667,0037,-7.83,-1.66,8.0000,258.0000
1981-06-04 05:30:00 UTC,2444759.729167,29.6417,-93.6667,0037,-7.99,-0.42,8.0000,267.0000
1981-06-04 06:00:00 UTC,2444759.750000,29.6417,-93.6667,0037,-8.91,1.25,9.0000,278.0000
1981-06-04 06:30:00 UTC,2444759.770833,29.6417,-93.6667,0037,-8.93,1.10,9.0000,277.0000
1981-06-04 07:00:00 UTC,2444759.791667,29.6417,-93.6667,0037,-10.00,0.17,10.0000,271.0000
1981-06-04 07:30:00 UTC,2444759.812500,29.6417,-93.6667,0037,-11.00,-0.19,11.0000,269.0000
1981-06-04 08:00:00 UTC,2444759.833333,29.6417,-93.6667,0037,-13.95,-1.22,14.0000,265.0000
1981-06-04 08:30:00 UTC,2444759.854167,29.6417,-93.6667,0037,-14.85,-2.09,15.0000,262.0000
1981-06-04 09:00:00 UTC,2444759.875000,29.6417,-93.6667,0037,-16.87,-2.07,17.0000,263.0000
1981-06-04 09:30:00 UTC,2444759.895833,29.6417,-93.6667,0037,-16.79,-2.66,17.0000,261.0000
1981-06-04 10:00:00 UTC,2444759.916667,29.6417,-93.6667,0037,-16.56,-3.82,17.0000,257.0000
1981-06-04 10:30:00 UTC,2444759.937500,29.6417,-93.6667,0037,-15.38,-4.41,16.0000,254.0000
1981-06-04 11:00:00 UTC,2444759.958333,29.6417,-93.6667,0037,-14.27,-4.64,15.0000,252.0000
1981-06-04 11:30:00 UTC,2444759.979167,29.6417,-93.6667,0037,-14.62,-6.51,16.0000,246.0000
1981-06-04 12:00:00 UTC,2444760.000000,29.6417,-93.6667,0037,-15.15,-7.72,17.0000,243.0000
1981-06-04 12:30:00 UTC,2444760.020833,29.6417,-93.6667,0037,-15.28,-7.45,17.0000,244.0000
1981-06-04 13:00:00 UTC,2444760.041667,29.6417,-93.6667,0037,-15.01,-7.98,17.0000,242.0000
1981-06-04 13:30:00 UTC,2444760.062500,29.6417,-93.6667,0037,-13.86,-8.00,16.0000,240.0000
1981-06-04 14:00:00 UTC,2444760.083333,29.6417,-93.6667,0037,-12.99,-7.50,15.0000,240.0000
1981-06-04 14:30:00 UTC,2444760.104167,29.6417,-93.6667,0037,-12.86,-7.73,15.0000,239.0000
1981-06-04 15:00:00 UTC,2444760.125000,29.6417,-93.6667,0037,-13.12,-7.27,15.0000,241.0000
1981-06-04 15:30:00 UTC,2444760.145833,29.6417,-93.6667,0037,-12.79,-5.69,14.0000,246.0000
1981-06-04 16:00:00 UTC,2444760.166667,29.6417,-93.6667,0037,-11.05,-4.69,12.0000,247.0000
1981-06-04 16:30:00 UTC,2444760.187500,29.6417,-93.6667,0037,-10.39,-6.00,12.0000,240.0000
1981-06-04 17:00:00 UTC,2444760.208333,29.6417,-93.6667,0037,-11.37,-6.30,13.0000,241.0000
1981-06-04 17:30:00 UTC,2444760.229167,29.6417,-93.6667,0037,-14.83,-5.99,16.0000,248.0000
1981-06-04 18:00:00 UTC,2444760.250000,29.6417,-93.6667,0037,-16.91,-6.16,18.0000,250.0000
1981-06-04 18:30:00 UTC,2444760.270833,29.6417,-93.6667,0037,-17.22,-8.03,19.0000,245.0000
1981-06-04 19:00:00 UTC,2444760.291667,29.6417,-93.6667,0037,-19.42,-10.33,22.0000,242.0000
1981-06-04 19:30:00 UTC,2444760.312500,29.6417,-93.6667,0037,-21.93,-9.76,24.0000,246.0000
1981-06-04 20:00:00 UTC,2444760.333333,29.6417,-93.6667,0037,-22.69,-7.81,24.0000,251.0000
1981-06-04 20:30:00 UTC,2444760.354167,29.6417,-93.6667,0037,-19.86,-6.84,21.0000,251.0000
1981-06-04 21:00:00 UTC,2444760.375000,29.6417,-93.6667,0037,-16.93,-8.63,19.0000,243.0000
1981-06-04 21:30:00 UTC,2444760.395833,29.6417,-93.6667,0037,-16.77,-10.89,20.0000,237.0000
1981-06-04 22:00:00 UTC,2444760.416667,29.6417,-93.6667,0037,-20.31,-10.80,23.0000,242.0000
1981-06-04 22:30:00 UTC,2444760.437500,29.6417,-93.6667,0037,-21.57,-10.52,24.0000,244.0000
1981-06-04 23:00:00 UTC,2444760.458333,29.6417,-93.6667,0037,-21.38,-10.90,24.0000,243.0000
1981-06-04 23:30:00 UTC,2444760.479167,29.6417,-93.6667,0037,-24.47,-11.41,27.0000,245.0000
1981-06-05 00:00:00 UTC,2444760.500000,29.6417,-93.6667,0037,-29.91,-13.95,33.0000,245.0000
1981-06-05 00:30:00 UTC,2444760.520833,29.6417,-93.6667,0037,-32.97,-16.80,37.0000,243.0000
1981-06-05 01:00:00 UTC,2444760.541667,29.6417,-93.6667,0037,-31.06,-13.83,34.0000,246.0000
1981-06-05 01:30:00 UTC,2444760.562500,29.6417,-93.6667,0037,-28.01,-10.75,30.0000,249.0000
1981-06-05 02:00:00 UTC,2444760.583333,29.6417,-93.6667,0037,-25.96,-10.49,28.0000,248.0000
1981-06-05 02:30:00 UTC,2444760.604167,29.6417,-93.6667,0037,-26.28,-12.26,29.0000,245.0000
1981-06-05 03:00:00 UTC,2444760.625000,29.6417,-93.6667,0037,-25.38,-11.83,28.0000,245.0000
1981-06-05 03:30:00 UTC,2444760.645833,29.6417,-93.6667,0037,-26.89,-10.86,29.0000,248.0000
1981-06-05 04:00:00 UTC,2444760.666667,29.6417,-93.6667,0037,-27.42,-9.44,29.0000,251.0000
1981-06-05 04:30:00 UTC,2444760.687500,29.6417,-93.6667,0037,-26.69,-11.33,29.0000,247.0000
1981-06-05 05:00:00 UTC,2444760.708333,29.6417,-93.6667,0037,-27.41,-12.20,30.0000,246.0000
1981-06-05 05:30:00 UTC,2444760.729167,29.6417,-93.6667,0037,-30.21,-6.97,31.0000,257.0000
1981-06-05 06:00:00 UTC,2444760.750000,29.6417,-93.6667,0037,-32.00,-0.56,32.0000,269.0000
1981-06-05 06:30:00 UTC,2444760.770833,29.6417,-93.6667,0037,-32.00,-0.56,32.0000,269.0000
1981-06-05 07:00:00 UTC,2444760.791667,29.6417,-93.6667,0037,-31.82,-3.34,32.0000,264.0000
1981-06-05 07:30:00 UTC,2444760.812500,29.6417,-93.6667,0037,-33.75,-4.14,34.0000,263.0000
1981-06-05 08:00:00 UTC,2444760.833333,29.6417,-93.6667,0037,-33.87,-2.96,34.0000,265.0000
1981-06-05 08:30:00 UTC,2444760.854167,29.6417,-93.6667,0037,-35.95,-1.88,36.0000,267.0000
1981-06-05 09:00:00 UTC,2444760.875000,29.6417,-93.6667,0037,-37.86,-3.31,38.0000,265.0000
1981-06-05 09:30:00 UTC,2444760.895833,29.6417,-93.6667,0037,-37.63,-5.29,38.0000,262.0000
1981-06-05 10:00:00 UTC,2444760.916667,29.6417,-93.6667,0037,-37.42,-6.60,38.0000,260.0000
1981-06-05 10:30:00 UTC,2444760.937500,29.6417,-93.6667,0037,-37.17,-7.90,38.0000,258.0000
1981-06-05 11:00:00 UTC,2444760.958333,29.6417,-93.6667,0037,-34.61,-9.92,36.0000,254.0000
1981-06-05 11:30:00 UTC,2444760.979167,29.6417,-93.6667,0037,-33.29,-10.82,35.0000,252.0000
1981-06-05 12:00:00 UTC,2444761.000000,29.6417,-93.6667,0037,-33.81,-9.06,35.0000,255.0000
1981-06-05 12:30:00 UTC,2444761.020833,29.6417,-93.6667,0037,-34.10,-7.87,35.0000,257.0000
1981-06-05 13:00:00 UTC,2444761.041667,29.6417,-93.6667,0037,-33.47,-10.23,35.0000,253.0000
1981-06-05 13:30:00 UTC,2444761.062500,29.6417,-93.6667,0037,-31.95,-11.63,34.0000,250.0000
1981-06-05 14:00:00 UTC,2444761.083333,29.6417,-93.6667,0037,-33.61,-12.90,36.0000,249.0000
1981-06-05 14:30:00 UTC,2444761.104167,29.6417,-93.6667,0037,-37.82,-13.02,40.0000,251.0000
1981-06-05 15:00:00 UTC,2444761.125000,29.6417,-93.6667,0037,-38.64,-10.35,40.0000,255.0000
1981-06-05 15:30:00 UTC,2444761.145833,29.6417,-93.6667,0037,-33.64,-9.65,35.0000,254.0000
1981-06-05 16:00:00 UTC,2444761.166667,29.6417,-93.6667,0037,-27.41,-12.20,30.0000,246.0000
1981-06-05 16:30:00 UTC,2444761.187500,29.6417,-93.6667,0037,-30.02,-15.96,34.0000,242.0000
1981-06-05 17:00:00 UTC,2444761.208333,29.6417,-93.6667,0037,-36.85,-17.97,41.0000,244.0000
1981-06-05 17:30:00 UTC,2444761.229167,29.6417,-93.6667,0037,-41.42,-17.58,45.0000,247.0000
1981-06-05 18:00:00 UTC,2444761.250000,29.6417,-93.6667,0037,-42.55,-14.65,45.0000,251.0000
1981-06-05 18:30:00 UTC,2444761.270833,29.6417,-93.6667,0037,-41.33,-11.85,43.0000,254.0000
1981-06-05 19:00:00 UTC,2444761.291667,29.6417,-93.6667,0037,-37.84,-9.44,39.0000,256.0000
1981-06-05 19:30:00 UTC,2444761.312500,29.6417,-93.6667,0037,-33.26,-7.07,34.0000,258.0000
1981-06-05 20:00:00 UTC,2444761.333333,29.6417,-93.6667,0037,-29.71,-4.18,30.0000,262.0000
1981-06-05 20:30:00 UTC,2444761.354167,29.6417,-93.6667,0037,-28.93,-2.02,29.0000,266.0000
1981-06-05 21:00:00 UTC,2444761.375000,29.6417,-93.6667,0037,-28.84,-3.03,29.0000,264.0000
1981-06-05 21:30:00 UTC,2444761.395833,29.6417,-93.6667,0037,-29.34,-6.24,30.0000,258.0000
1981-06-05 22:00:00 UTC,2444761.416667,29.6417,-93.6667,0037,-31.18,-7.20,32.0000,257.0000
1981-06-05 22:30:00 UTC,2444761.437500,29.6417,-93.6667,0037,-36.44,-6.43,37.0000,260.0000
1981-06-05 23:00:00 UTC,2444761.458333,29.6417,-93.6667,0037,-36.72,-4.51,37.0000,263.0000
1981-06-05 23:30:00 UTC,2444761.479167,29.6417,-93.6667,0037,-31.76,-3.90,32.0000,263.0000
1981-06-06 00:00:00 UTC,2444761.500000,29.6417,-93.6667,0037,-27.17,-6.77,28.0000,256.0000
1981-06-06 00:30:00 UTC,2444761.520833,29.6417,-93.6667,0037,-25.21,-9.68,27.0000,249.0000
1981-06-06 01:00:00 UTC,2444761.541667,29.6417,-93.6667,0037,-25.21,-9.68,27.0000,249.0000
1981-06-06 01:30:00 UTC,2444761.562500,29.6417,-93.6667,0037,-27.07,-10.39,29.0000,249.0000
1981-06-06 02:00:00 UTC,2444761.583333,29.6417,-93.6667,0037,-30.38,-12.89,33.0000,247.0000
1981-06-06 02:30:00 UTC,2444761.604167,29.6417,-93.6667,0037,-30.38,-12.89,33.0000,247.0000
1981-06-06 03:00:00 UTC,2444761.625000,29.6417,-93.6667,0037,-30.38,-12.89,33.0000,247.0000
1981-06-06 03:30:00 UTC,2444761.645833,29.6417,-93.6667,0037,-31.30,-13.28,34.0000,247.0000
1981-06-06 04:00:00 UTC,2444761.666667,29.6417,-93.6667,0037,-32.89,-14.64,36.0000,246.0000
1981-06-06 04:30:00 UTC,2444761.687500,29.6417,-93.6667,0037,-34.31,-13.86,37.0000,248.0000
1981-06-06 05:00:00 UTC,2444761.708333,29.6417,-93.6667,0037,-35.19,-11.43,37.0000,252.0000
1981-06-06 05:30:00 UTC,2444761.729167,29.6417,-93.6667,0037,-35.21,-7.48,36.0000,258.0000
1981-06-06 06:00:00 UTC,2444761.750000,29.6417,-93.6667,0037,-33.67,-4.73,34.0000,262.0000
1981-06-06 06:30:00 UTC,2444761.770833,29.6417,-93.6667,0037,-30.83,-3.24,31.0000,264.0000
1981-06-06 07:00:00 UTC,2444761.791667,29.6417,-93.6667,0037,-29.96,-1.57,30.0000,267.0000
1981-06-06 07:30:00 UTC,2444761.812500,29.6417,-93.6667,0037,-29.96,1.57,30.0000,273.0000
1981-06-06 08:00:00 UTC,2444761.833333,29.6417,-93.6667,0037,-29.71,4.18,30.0000,278.0000
1981-06-06 08:30:00 UTC,2444761.854167,29.6417,-93.6667,0037,-28.37,6.03,29.0000,282.0000
1981-06-06 09:00:00 UTC,2444761.875000,29.6417,-93.6667,0037,-27.73,8.48,29.0000,287.0000
1981-06-06 09:30:00 UTC,2444761.895833,29.6417,-93.6667,0037,-27.25,9.92,29.0000,290.0000
1981-06-06 10:00:00 UTC,2444761.916667,29.6417,-93.6667,0037,-26.89,10.86,29.0000,292.0000
1981-06-06 10:30:00 UTC,2444761.937500,29.6417,-93.6667,0037,-24.85,10.55,27.0000,293.0000
1981-06-06 11:00:00 UTC,2444761.958333,29.6417,-93.6667,0037,-23.18,9.37,25.0000,292.0000
1981-06-06 11:30:00 UTC,2444761.979167,29.6417,-93.6667,0037,-21.75,7.49,23.0000,289.0000
1981-06-06 12:00:00 UTC,2444762.000000,29.6417,-93.6667,0037,-19.23,5.51,20.0000,286.0000
1981-06-06 12:30:00 UTC,2444762.020833,29.6417,-93.6667,0037,-18.17,5.56,19.0000,287.0000
1981-06-06 13:00:00 UTC,2444762.041667,29.6417,-93.6667,0037,-14.94,5.73,16.0000,291.0000
1981-06-06 13:30:00 UTC,2444762.062500,29.6417,-93.6667,0037,-11.13,4.50,12.0000,292.0000
1981-06-06 14:00:00 UTC,2444762.083333,29.6417,-93.6667,0037,-7.56,2.60,8.0000,289.0000
1981-06-06 14:30:00 UTC,2444762.104167,29.6417,-93.6667,0037,-5.74,1.75,6.0000,287.0000
1981-06-06 15:00:00 UTC,2444762.125000,29.6417,-93.6667,0037,-4.78,1.46,5.0000,287.0000
1981-06-06 15:30:00 UTC,2444762.145833,29.6417,-93.6667,0037,-2.91,0.73,3.0000,284.0000
1981-06-06 16:00:00 UTC,2444762.166667,29.6417,-93.6667,0037,-1.00,-0.05,1.0000,267.0000
1981-06-06 16:30:00 UTC,2444762.187500,29.6417,-93.6667,0037,-0.93,-0.36,1.0000,249.0000
1981-06-06 17:00:00 UTC,2444762.208333,29.6417,-93.6667,0037,-0.88,-0.47,1.0000,242.0000
1981-06-06 17:30:00 UTC,2444762.229167,29.6417,-93.6667,0037,-0.57,-0.82,1.0000,215.0000
1981-06-06 18:00:00 UTC,2444762.250000,29.6417,-93.6667,0037,-0.47,-0.88,1.0000,208.0000
1981-06-06 18:30:00 UTC,2444762.270833,29.6417,-93.6667,0037,-0.00,-0.00,0.0000,204.0000
1981-06-06 19:00:00 UTC,2444762.291667,29.6417,-93.6667,0037,0.52,-0.86,1.0000,149.0000
1981-06-06 19:30:00 UTC,2444762.312500,29.6417,-93.6667,0037,1.27,-2.72,3.0000,155.0000
1981-06-06 20:00:00 UTC,2444762.333333,29.6417,-93.6667,0037,1.71,-4.70,5.0000,160.0000
1981-06-06 20:30:00 UTC,2444762.354167,29.6417,-93.6667,0037,1.35,-5.85,6.0000,167.0000
1981-06-06 21:00:00 UTC,2444762.375000,29.6417,-93.6667,0037,0.85,-6.95,7.0000,173.0000
1981-06-06 21:30:00 UTC,2444762.395833,29.6417,-93.6667,0037,0.14,-8.00,8.0000,179.0000
1981-06-06 22:00:00 UTC,2444762.416667,29.6417,-93.6667,0037,-1.05,-9.95,10.0000,186.0000
1981-06-06 22:30:00 UTC,2444762.437500,29.6417,-93.6667,0037,-1.91,-10.83,11.0000,190.0000
1981-06-06 23:00:00 UTC,2444762.458333,29.6417,-93.6667,0037,-2.10,-10.80,11.0000,191.0000
1981-06-06 23:30:00 UTC,2444762.479167,29.6417,-93.6667,0037,-4.45,-12.22,13.0000,200.0000
1981-06-07 00:00:00 UTC,2444762.500000,29.6417,-93.6667,0037,-10.07,-14.92,18.0000,214.0000
1981-06-07 00:30:00 UTC,2444762.520833,29.6417,-93.6667,0037,-15.43,-18.39,24.0000,220.0000
1981-06-07 01:00:00 UTC,2444762.541667,29.6417,-93.6667,0037,-17.05,-18.28,25.0000,223.0000
1981-06-07 01:30:00 UTC,2444762.562500,29.6417,-93.6667,0037,-18.38,-18.38,26.0000,225.0000
1981-06-07 02:00:00 UTC,2444762.583333,29.6417,-93.6667,0037,-18.70,-18.06,26.0000,226.0000
1981-06-07 02:30:00 UTC,2444762.604167,29.6417,-93.6667,0037,-20.14,-19.45,28.0000,226.0000
1981-06-07 03:00:00 UTC,2444762.625000,29.6417,-93.6667,0037,-21.89,-19.03,29.0000,229.0000
1981-06-07 03:30:00 UTC,2444762.645833,29.6417,-93.6667,0037,-23.96,-18.05,30.0000,233.0000
1981-06-07 04:00:00 UTC,2444762.666667,29.6417,-93.6667,0037,-24.32,-15.79,29.0000,237.0000
1981-06-07 04:30:00 UTC,2444762.687500,29.6417,-93.6667,0037,-25.36,-14.06,29.0000,241.0000
1981-06-07 05:00:00 UTC,2444762.708333,29.6417,-93.6667,0037,-25.36,-14.06,29.0000,241.0000
1981-06-07 05:30:00 UTC,2444762.729167,29.6417,-93.6667,0037,-24.86,-14.94,29.0000,239.0000
1981-06-07 06:00:00 UTC,2444762.750000,29.6417,-93.6667,0037,-24.06,-12.26,27.0000,243.0000
1981-06-07 06:30:00 UTC,2444762.770833,29.6417,-93.6667,0037,-24.03,-6.89,25.0000,254.0000
1981-06-07 07:00:00 UTC,2444762.791667,29.6417,-93.6667,0037,-23.94,-1.67,24.0000,266.0000
1981-06-07 07:30:00 UTC,2444762.812500,29.6417,-93.6667,0037,-24.81,3.05,25.0000,277.0000
1981-06-07 08:00:00 UTC,2444762.833333,29.6417,-93.6667,0037,-24.86,7.60,26.0000,287.0000
1981-06-07 08:30:00 UTC,2444762.854167,29.6417,-93.6667,0037,-25.37,9.23,27.0000,290.0000
1981-06-07 09:00:00 UTC,2444762.875000,29.6417,-93.6667,0037,-25.21,9.68,27.0000,291.0000
1981-06-07 09:30:00 UTC,2444762.895833,29.6417,-93.6667,0037,-25.11,14.50,29.0000,300.0000
1981-06-07 10:00:00 UTC,2444762.916667,29.6417,-93.6667,0037,-24.51,20.57,32.0000,310.0000
1981-06-07 10:30:00 UTC,2444762.937500,29.6417,-93.6667,0037,-21.92,21.92,31.0000,315.0000
1981-06-07 11:00:00 UTC,2444762.958333,29.6417,-93.6667,0037,-18.74,20.81,28.0000,318.0000
1981-06-07 11:30:00 UTC,2444762.979167,29.6417,-93.6667,0037,-15.05,19.97,25.0000,323.0000
1981-06-07 12:00:00 UTC,2444763.000000,29.6417,-93.6667,0037,-11.66,18.66,22.0000,328.0000
1981-06-07 12:30:00 UTC,2444763.020833,29.6417,-93.6667,0037,-7.72,15.15,17.0000,333.0000
1981-06-07 13:00:00 UTC,2444763.041667,29.6417,-93.6667,0037,-4.02,12.36,13.0000,342.0000
1981-06-07 13:30:00 UTC,2444763.062500,29.6417,-93.6667,0037,-0.70,7.97,8.0000,355.0000
1981-06-07 14:00:00 UTC,2444763.083333,29.6417,-93.6667,0037,0.69,3.94,4.0000,10.0000
1981-06-07 14:30:00 UTC,2444763.104167,29.6417,-93.6667,0037,0.79,0.62,1.0000,52.0000
1981-06-07 15:00:00 UTC,2444763.125000,29.6417,-93.6667,0037,2.00,0.03,2.0000,89.0000
1981-06-07 15:30:00 UTC,2444763.145833,29.6417,-93.6667,0037,4.95,0.70,5.0000,82.0000
1981-06-07 16:00:00 UTC,2444763.166667,29.6417,-93.6667,0037,6.79,1.69,7.0000,76.0000
1981-06-07 16:30:00 UTC,2444763.187500,29.6417,-93.6667,0037,7.73,2.07,8.0000,75.0000
1981-06-07 17:00:00 UTC,2444763.208333,29.6417,-93.6667,0037,8.73,2.18,9.0000,76.0000
1981-06-07 17:30:00 UTC,2444763.229167,29.6417,-93.6667,0037,9.66,2.59,10.0000,75.0000
1981-06-07 18:00:00 UTC,2444763.250000,29.6417,-93.6667,0037,9.56,2.92,10.0000,73.0000
1981-06-07 18:30:00 UTC,2444763.270833,29.6417,-93.6667,0037,9.66,2.59,10.0000,75.0000
1981-06-07 19:00:00 UTC,2444763.291667,29.6417,-93.6667,0037,8.65,2.48,9.0000,74.0000
1981-06-07 19:30:00 UTC,2444763.312500,29.6417,-93.6667,0037,8.28,3.52,9.0000,67.0000
1981-06-07 20:00:00 UTC,2444763.333333,29.6417,-93.6667,0037,7.87,4.36,9.0000,61.0000
1981-06-07 20:30:00 UTC,2444763.354167,29.6417,-93.6667,0037,8.75,4.85,10.0000,61.0000
1981-06-07 21:00:00 UTC,2444763.375000,29.6417,-93.6667,0037,10.20,4.12,11.0000,68.0000
1981-06-07 21:30:00 UTC,2444763.395833,29.6417,-93.6667,0037,9.78,2.08,10.0000,78.0000
1981-06-07 22:00:00 UTC,2444763.416667,29.6417,-93.6667,0037,9.96,0.87,10.0000,85.0000
1981-06-07 22:30:00 UTC,2444763.437500,29.6417,-93.6667,0037,6.93,0.97,7.0000,82.0000
1981-06-07 23:00:00 UTC,2444763.458333,29.6417,-93.6667,0037,3.73,1.43,4.0000,69.0000
1981-06-07 23:30:00 UTC,2444763.479167,29.6417,-93.6667,0037,1.53,1.29,2.0000,50.0000
1981-06-08 00:00:00 UTC,2444763.500000,29.6417,-93.6667,0037,1.55,1.26,2.0000,51.0000
1981-06-08 00:30:00 UTC,2444763.520833,29.6417,-93.6667,0037,1.62,1.18,2.0000,54.0000
1981-06-08 01:00:00 UTC,2444763.541667,29.6417,-93.6667,0037,2.36,1.85,3.0000,52.0000
1981-06-08 01:30:00 UTC,2444763.562500,29.6417,-93.6667,0037,3.94,3.08,5.0000,52.0000
1981-06-08 02:00:00 UTC,2444763.583333,29.6417,-93.6667,0037,5.03,3.27,6.0000,57.0000
1981-06-08 02:30:00 UTC,2444763.604167,29.6417,-93.6667,0037,5.52,2.34,6.0000,67.0000
1981-06-08 03:00:00 UTC,2444763.625000,29.6417,-93.6667,0037,5.71,1.85,6.0000,72.0000
1981-06-08 03:30:00 UTC,2444763.645833,29.6417,-93.6667,0037,5.60,2.15,6.0000,69.0000
1981-06-08 04:00:00 UTC,2444763.666667,29.6417,-93.6667,0037,6.34,2.96,7.0000,65.0000
1981-06-08 04:30:00 UTC,2444763.687500,29.6417,-93.6667,0037,7.25,3.38,8.0000,65.0000
1981-06-08 05:00:00 UTC,2444763.708333,29.6417,-93.6667,0037,7.61,2.47,8.0000,72.0000
1981-06-08 05:30:00 UTC,2444763.729167,29.6417,-93.6667,0037,6.93,0.97,7.0000,82.0000
1981-06-08 06:00:00 UTC,2444763.750000,29.6417,-93.6667,0037,6.96,0.73,7.0000,84.0000
1981-06-08 06:30:00 UTC,2444763.770833,29.6417,-93.6667,0037,6.79,1.69,7.0000,76.0000
1981-06-08 07:00:00 UTC,2444763.791667,29.6417,-93.6667,0037,6.44,2.74,7.0000,67.0000